Location: LDNL
(36.4545°S, 141.6685°E)
Time: 17:21:50
(UTC+10:00)

Courier 1B - Pass Details

Date: 13 August 2022
Orbit: 962 x 1209 km, 28.3° (Epoch: 25 September)

Event Time Altitude Azimuth Distance (km) Brightness Sun altitude
Exits shadow 04:29:45 22° 8° (N) 2,310 9.4 -34.4°
Drops below altitude 10° 04:33:19 10° 32° (NNE) 3,074 10.3 -33.7°
Sets 04:36:32 0° 44° (NE) 3,999 11.2 -33.1°
